This is the latest recevied weather packets stored in our database for station/object NQ9F. If no packets are shown the sender has not sent any weather packets the latest 10 day(s).
| Time | Temp. | Humidity | Pressure | Rain* | Wind** | Luminosity | Snow |
|---|---|---|---|---|---|---|---|
| 1777322408 | 32.22° C | 36% | 1008.3 hPa | 0 mm | - | 870 W/m² | - |
| 1777322104 | 32.22° C | 36% | 1008.5 hPa | 0 mm | - | 881 W/m² | - |
| 1777321801 | 32.22° C | 36% | 1008.2 hPa | 0 mm | - | 896 W/m² | - |
| 1777321497 | 32.22° C | 40% | 1008.3 hPa | 0 mm | - | 902 W/m² | - |
| 1777321195 | 32.78° C | 37% | 1008.5 hPa | 0 mm | - | 909 W/m² | - |
| 1777320892 | 32.22° C | 42% | 1008.5 hPa | 0 mm | - | 923 W/m² | - |
| 1777320589 | 32.22° C | 36% | 1008.5 hPa | 0 mm | - | 928 W/m² | - |
| 1777320287 | 32.22° C | 40% | 1008.5 hPa | 0 mm | - | 933 W/m² | - |
| 1777319983 | 31.67° C | 38% | 1008.7 hPa | 0 mm | - | 941 W/m² | - |
| 1777319680 | 31.67° C | 37% | 1008.8 hPa | 0 mm | - | 948 W/m² | - |
| 1777319377 | 31.67° C | 37% | 1008.7 hPa | 0 mm | - | 959 W/m² | - |
| 1777319074 | 31.67° C | 38% | 1008.6 hPa | 0 mm | - | 965 W/m² | - |
| 1777318771 | 32.22° C | 38% | 1008.7 hPa | 0 mm | - | 966 W/m² | - |
| 1777318467 | 31.67° C | 38% | 1008.5 hPa | 0 mm | - | 974 W/m² | - |
| 1777318164 | 31.67° C | 34% | 1008.6 hPa | 0 mm | - | 979 W/m² | - |
| 1777317861 | 31.67° C | 37% | 1008.6 hPa | 0 mm | - | 979 W/m² | - |
| 1777317558 | 31.67° C | 35% | 1008.7 hPa | 0 mm | - | 981 W/m² | - |
| 1777317255 | 31.67° C | 35% | 1008.6 hPa | 0 mm | - | 974 W/m² | - |
| 1777316950 | 31.67° C | 42% | 1008.7 hPa | 0 mm | - | 977 W/m² | - |
| 1777316648 | 31.67° C | 41% | 1008.5 hPa | 0 mm | - | 967 W/m² | - |
| 1777316344 | 31.67° C | 41% | 1008.7 hPa | 0 mm | - | 969 W/m² | - |
| 1777316041 | 31.11° C | 45% | 1008.7 hPa | 0 mm | - | 990 W/m² | - |
| 1777315735 | 31.11° C | 44% | 1008.6 hPa | 0 mm | - | 129 W/m² | - |
| 1777315431 | 31.11° C | 46% | 1008.6 hPa | 0 mm | - | 239 W/m² | - |
| 1777315124 | 30.56° C | 48% | 1008.8 hPa | 0 mm | - | 149 W/m² | - |
* Rain latest hour (hover to see other rain measurements)
** Current wind speed in m/s (hover to see current wind gust speed)